TimeCST,TemperatureF,Dew PointF,Humidity,Sea Level PressureIn,VisibilityMPH,Wind Direction,Wind SpeedMPH,Gust SpeedMPH,PrecipitationIn,Events,Conditions,WindDirDegrees,DateUTC
12:15 AM,24.8,12.2,59,30.47,10.0,South,11.5,-,N/A,,Clear,190,2013-11-13 06:15:00
12:35 AM,24.8,12.2,59,30.46,10.0,South,13.8,-,N/A,,Clear,180,2013-11-13 06:35:00
12:55 AM,24.8,12.2,59,30.44,10.0,South,12.7,-,N/A,,Clear,180,2013-11-13 06:55:00
1:15 AM,24.8,12.2,59,30.44,10.0,South,16.1,-,N/A,,Clear,180,2013-11-13 07:15:00
1:35 AM,24.8,14.0,64,30.43,10.0,South,13.8,-,N/A,,Clear,180,2013-11-13 07:35:00
1:55 AM,24.8,14.0,64,30.42,10.0,South,16.1,-,N/A,,Clear,180,2013-11-13 07:55:00
2:15 AM,24.8,14.0,64,30.41,10.0,South,16.1,23.0,N/A,,Clear,190,2013-11-13 08:15:00
2:35 AM,26.6,14.0,59,30.40,10.0,South,16.1,-,N/A,,Clear,180,2013-11-13 08:35:00
2:55 AM,26.6,14.0,59,30.39,10.0,South,17.3,-,N/A,,Clear,180,2013-11-13 08:55:00
3:15 AM,26.6,14.0,59,30.37,10.0,South,17.3,23.0,N/A,,Clear,180,2013-11-13 09:15:00
3:35 AM,26.6,14.0,59,30.36,10.0,South,15.0,23.0,N/A,,Clear,190,2013-11-13 09:35:00
3:55 AM,26.6,14.0,59,30.35,10.0,South,17.3,23.0,N/A,,Clear,180,2013-11-13 09:55:00
4:15 AM,26.6,14.0,59,30.34,10.0,South,13.8,-,N/A,,Clear,180,2013-11-13 10:15:00
4:35 AM,26.6,14.0,59,30.32,10.0,South,10.4,18.4,N/A,,Clear,180,2013-11-13 10:35:00
4:55 AM,26.6,14.0,59,30.30,10.0,South,18.4,-,N/A,,Clear,190,2013-11-13 10:55:00
5:15 AM,26.6,14.0,59,30.28,10.0,South,20.7,28.8,N/A,,Clear,190,2013-11-13 11:15:00
5:35 AM,26.6,15.8,64,30.28,10.0,South,18.4,26.5,N/A,,Clear,190,2013-11-13 11:35:00
5:55 AM,26.6,14.0,59,30.27,10.0,South,17.3,-,N/A,,Clear,190,2013-11-13 11:55:00
6:15 AM,24.8,15.8,69,30.27,10.0,South,12.7,-,N/A,,Clear,190,2013-11-13 12:15:00
6:35 AM,24.8,15.8,69,30.26,10.0,South,11.5,19.6,N/A,,Clear,190,2013-11-13 12:35:00
6:55 AM,24.8,15.8,69,30.26,10.0,South,12.7,-,N/A,,Clear,180,2013-11-13 12:55:00
7:15 AM,24.8,15.8,69,30.25,10.0,South,13.8,-,N/A,,Clear,180,2013-11-13 13:15:00
7:35 AM,24.8,15.8,69,30.25,10.0,South,13.8,20.7,N/A,,Clear,180,2013-11-13 13:35:00
7:55 AM,26.6,17.6,69,30.25,10.0,South,10.4,17.3,N/A,,Clear,180,2013-11-13 13:55:00
8:15 AM,28.4,17.6,64,30.24,10.0,South,10.4,-,N/A,,Clear,190,2013-11-13 14:15:00
8:35 AM,30.2,17.6,60,30.23,10.0,South,17.3,-,N/A,,Clear,190,2013-11-13 14:35:00
8:55 AM,32.0,19.4,60,30.22,10.0,South,16.1,24.2,N/A,,Clear,190,2013-11-13 14:55:00
9:15 AM,32.0,19.4,60,30.21,10.0,South,19.6,26.5,N/A,,Clear,190,2013-11-13 15:15:00
9:35 AM,33.8,21.2,60,30.20,10.0,South,18.4,27.6,N/A,,Clear,190,2013-11-13 15:35:00
9:55 AM,35.6,21.2,56,30.19,10.0,SSW,18.4,25.3,N/A,,Clear,200,2013-11-13 15:55:00
10:15 AM,37.4,23.0,56,30.18,10.0,South,18.4,29.9,N/A,,Clear,190,2013-11-13 16:15:00
10:35 AM,39.2,23.0,52,30.17,10.0,SSW,20.7,29.9,N/A,,Clear,200,2013-11-13 16:35:00
10:55 AM,41.0,24.8,53,30.16,10.0,SSW,20.7,28.8,N/A,,Clear,200,2013-11-13 16:55:00
11:15 AM,42.8,24.8,49,30.14,10.0,South,20.7,-,N/A,,Clear,190,2013-11-13 17:15:00
11:35 AM,46.4,26.6,46,30.12,-9999.0,SSW,23.0,-,N/A,,Clear,200,2013-11-13 17:35:00
11:55 AM,46.4,26.6,46,30.12,10.0,SSW,19.6,-,N/A,,Clear,200,2013-11-13 17:55:00
12:15 PM,48.2,26.6,43,30.10,10.0,SSW,18.4,25.3,N/A,,Clear,200,2013-11-13 18:15:00
12:35 PM,50.0,28.4,43,30.09,10.0,South,18.4,28.8,N/A,,Clear,190,2013-11-13 18:35:00
12:55 PM,51.8,28.4,41,30.08,10.0,SSW,23.0,29.9,N/A,,Clear,210,2013-11-13 18:55:00
1:15 PM,53.6,28.4,38,30.05,10.0,SSW,25.3,-,N/A,,Clear,200,2013-11-13 19:15:00
1:35 PM,53.6,28.4,38,30.05,10.0,SSW,20.7,29.9,N/A,,Clear,200,2013-11-13 19:35:00
1:55 PM,55.4,28.4,36,30.03,10.0,SSW,23.0,-,N/A,,Clear,200,2013-11-13 19:55:00
2:15 PM,55.4,28.4,36,30.01,10.0,SSW,24.2,33.4,N/A,,Clear,200,2013-11-13 20:15:00
2:35 PM,55.4,30.2,38,30.01,10.0,SSW,25.3,32.2,N/A,,Clear,200,2013-11-13 20:35:00
2:55 PM,55.4,30.2,38,30.00,10.0,SSW,19.6,27.6,N/A,,Clear,200,2013-11-13 20:55:00
3:15 PM,55.4,30.2,38,30.00,10.0,SSW,21.9,28.8,N/A,,Clear,200,2013-11-13 21:15:00
3:35 PM,55.4,30.2,38,30.00,10.0,SSW,16.1,27.6,N/A,,Clear,210,2013-11-13 21:35:00
3:55 PM,55.4,30.2,38,30.01,10.0,SSW,15.0,27.6,N/A,,Clear,210,2013-11-13 21:55:00
4:15 PM,55.4,30.2,38,30.00,10.0,SSW,16.1,-,N/A,,Clear,210,2013-11-13 22:15:00
4:35 PM,53.6,30.2,41,30.01,10.0,SSW,13.8,19.6,N/A,,Clear,210,2013-11-13 22:35:00
4:55 PM,50.0,30.2,47,30.00,10.0,SSW,11.5,-,N/A,,Clear,200,2013-11-13 22:55:00
5:15 PM,48.2,30.2,50,30.00,10.0,South,10.4,-,N/A,,Clear,180,2013-11-13 23:15:00
5:35 PM,46.4,30.2,53,30.00,10.0,South,10.4,-,N/A,,Clear,180,2013-11-13 23:35:00
5:55 PM,44.6,30.2,57,30.01,10.0,South,9.2,-,N/A,,Clear,180,2013-11-13 23:55:00
6:15 PM,44.6,30.2,57,30.00,10.0,South,12.7,-,N/A,,Clear,190,2013-11-14 00:15:00
6:35 PM,44.6,30.2,57,30.01,10.0,South,10.4,16.1,N/A,,Clear,180,2013-11-14 00:35:00
6:55 PM,44.6,30.2,57,30.00,10.0,South,12.7,-,N/A,,Clear,180,2013-11-14 00:55:00
7:15 PM,42.8,30.2,61,30.00,10.0,South,11.5,-,N/A,,Clear,170,2013-11-14 01:15:00
7:35 PM,41.0,30.2,65,29.99,10.0,South,9.2,15.0,N/A,,Clear,180,2013-11-14 01:35:00
7:55 PM,41.0,30.2,65,29.99,10.0,South,9.2,-,N/A,,Clear,180,2013-11-14 01:55:00
8:15 PM,41.0,30.2,65,29.98,10.0,South,9.2,-,N/A,,Clear,180,2013-11-14 02:15:00
8:35 PM,41.0,30.2,65,29.97,10.0,South,11.5,-,N/A,,Clear,180,2013-11-14 02:35:00
8:55 PM,41.0,28.4,61,29.96,10.0,South,13.8,-,N/A,,Clear,190,2013-11-14 02:55:00
9:15 PM,41.0,28.4,61,29.95,10.0,South,11.5,-,N/A,,Clear,190,2013-11-14 03:15:00
9:35 PM,41.0,28.4,61,29.95,10.0,South,13.8,20.7,N/A,,Clear,190,2013-11-14 03:35:00
9:55 PM,39.2,28.4,65,29.95,10.0,South,12.7,-,N/A,,Clear,190,2013-11-14 03:55:00
10:15 PM,39.2,28.4,65,29.94,10.0,South,10.4,-,N/A,,Clear,180,2013-11-14 04:15:00
10:35 PM,39.2,28.4,65,29.94,10.0,South,11.5,-,N/A,,Clear,190,2013-11-14 04:35:00
10:55 PM,37.4,28.4,70,29.94,10.0,South,9.2,-,N/A,,Clear,180,2013-11-14 04:55:00
11:15 PM,37.4,28.4,70,29.93,10.0,SSW,6.9,-,N/A,,Clear,200,2013-11-14 05:15:00
11:35 PM,37.4,28.4,70,29.93,10.0,South,8.1,-,N/A,,Clear,190,2013-11-14 05:35:00
11:55 PM,35.6,28.4,75,29.93,10.0,SSW,6.9,-,N/A,,Clear,200,2013-11-14 05:55:00